ETH706Z HAAB-EDDF

Flight info

Callsign ETH706Z
Flight time N/A
Altitude 36000
Route LABLA5A LABLA DCT AMUDO T124 ALRAP/N0501F350 DCT KSL/N0499F360 DCT TOMRU P751 KUNKI/N0488F380 T55 TANSA UL613 KOR DCT DIMIS DCT TRN DCT PERAN DCT GILUK DCT NOVLO DCT ZAG DCT PETOV DCT GOLVA DCT SIMBA DCT NIMDI DCT ERNAS T161 DEBHI DEBHI1C
Aircraft A359/H-SDE2E3GHIJ3J4J5LM1ORWXY/LB1D1

Departure

Time 2026-05-01 08:01
Airport Addis Ababa Bole International Airport (HAAB)

Arrival

Time N/A
Airport Frankfurt Main Airport (EDDF)
Time Latitude Longitude Altitude Speed Heading
2026-05-01 07:33 8.98233 38.79661 7630 ft 0 kts 345°
2026-05-01 07:38 8.98226 38.79663 7630 ft 2 kts 345°
2026-05-01 07:38 8.98210 38.79667 7635 ft 2 kts 345°
2026-05-01 07:38 8.98181 38.79679 7630 ft 2 kts 312°
2026-05-01 07:39 8.98173 38.79693 7636 ft 2 kts 272°
2026-05-01 07:39 8.98176 38.79709 7634 ft 2 kts 249°
2026-05-01 07:39 8.98181 38.79724 7635 ft 0 kts 255°
2026-05-01 07:40 8.98181 38.79723 7635 ft 0 kts 255°
2026-05-01 07:40 8.98179 38.79719 7636 ft 5 kts 255°
2026-05-01 07:40 8.98167 38.79671 7635 ft 7 kts 254°
2026-05-01 07:41 8.98152 38.79624 7629 ft 7 kts 253°
2026-05-01 07:41 8.98132 38.79558 7629 ft 13 kts 252°
2026-05-01 07:41 8.98073 38.79351 7628 ft 15 kts 254°
2026-05-01 07:42 8.98045 38.79249 7628 ft 15 kts 254°
2026-05-01 07:42 8.98026 38.79159 7628 ft 13 kts 257°
2026-05-01 07:42 8.98005 38.79072 7628 ft 13 kts 255°
2026-05-01 07:42 8.97979 38.78989 7627 ft 12 kts 251°
2026-05-01 07:43 8.97953 38.78911 7627 ft 11 kts 251°
2026-05-01 07:43 8.97929 38.78836 7627 ft 11 kts 252°
2026-05-01 07:43 8.97878 38.78738 7627 ft 5 kts 192°
2026-05-01 07:44 8.97812 38.78749 7626 ft 7 kts 166°
2026-05-01 07:44 8.97709 38.78778 7625 ft 8 kts 163°
2026-05-01 07:45 8.97654 38.78795 7624 ft 8 kts 163°
2026-05-01 07:45 8.97601 38.78811 7624 ft 7 kts 166°
2026-05-01 07:45 8.97581 38.78807 7624 ft 0 kts 196°
2026-05-01 07:45 8.97563 38.78788 7625 ft 11 kts 241°
2026-05-01 07:46 8.97522 38.78675 7624 ft 22 kts 249°
2026-05-01 07:46 8.97484 38.78535 7622 ft 20 kts 253°
2026-05-01 07:46 8.97471 38.78309 7622 ft 14 kts 270°
2026-05-01 07:47 8.97420 38.78276 7621 ft 8 kts 139°
2026-05-01 07:47 8.97419 38.78307 7622 ft 2 kts 74°
2026-05-01 07:47 8.97420 38.78308 7622 ft 0 kts 74°
2026-05-01 08:01 8.97766 38.79497 7626 ft 136 kts 73°
2026-05-01 08:01 8.98069 38.80549 7643 ft 179 kts 75°
2026-05-01 08:01 8.98381 38.81764 8285 ft 173 kts 73°
2026-05-01 08:02 8.99004 38.84277 8924 ft 201 kts 75°
2026-05-01 08:02 8.99394 38.85672 9077 ft 212 kts 75°
2026-05-01 08:03 9.00235 38.88726 9289 ft 240 kts 75°
2026-05-01 08:03 9.00690 38.90397 9457 ft 253 kts 75°
2026-05-01 08:03 9.01666 38.93994 9840 ft 277 kts 75°
2026-05-01 08:04 9.02727 38.97914 10219 ft 300 kts 75°
2026-05-01 08:04 9.02647 39.01993 11191 ft 293 kts 113°
2026-05-01 08:05 9.01191 39.05836 11989 ft 294 kts 95°
2026-05-01 08:05 9.01451 39.07852 12404 ft 291 kts 66°
2026-05-01 08:05 9.02698 39.09461 12654 ft 300 kts 35°
2026-05-01 08:06 9.06746 39.09419 13171 ft 324 kts 325°
2026-05-01 08:06 9.08835 39.05320 13614 ft 346 kts 285°
2026-05-01 08:07 9.10155 39.01407 13925 ft 362 kts 291°
2026-05-01 08:07 9.11888 38.96466 14311 ft 386 kts 290°
2026-05-01 08:08 9.13071 38.92982 14647 ft 405 kts 290°
2026-05-01 08:08 9.14914 38.87484 15380 ft 416 kts 289°
2026-05-01 08:09 9.16801 38.81889 16013 ft 424 kts 291°
2026-05-01 08:09 9.17654 38.80078 16201 ft 425 kts 302°
2026-05-01 08:09 9.19545 38.77790 16516 ft 424 kts 321°
2026-05-01 08:10 9.24411 38.74450 17153 ft 428 kts 329°
2026-05-01 08:10 9.29469 38.71204 17793 ft 432 kts 328°
2026-05-01 08:11 9.34553 38.67912 18425 ft 436 kts 328°
2026-05-01 08:11 9.39667 38.64589 18964 ft 439 kts 329°
2026-05-01 08:12 9.44896 38.61371 19525 ft 441 kts 330°
2026-05-01 08:12 9.47531 38.59767 19788 ft 442 kts 330°
2026-05-01 08:12 9.52801 38.56539 20322 ft 445 kts 329°
2026-05-01 08:13 9.55454 38.54910 20582 ft 446 kts 329°
2026-05-01 08:13 9.58114 38.53273 20842 ft 447 kts 329°
2026-05-01 08:13 9.63448 38.49991 21369 ft 450 kts 329°
2026-05-01 08:14 9.66132 38.48341 21639 ft 452 kts 329°
2026-05-01 08:14 9.68813 38.46692 21903 ft 453 kts 329°
2026-05-01 08:14 9.71454 38.45066 22184 ft 454 kts 329°
2026-05-01 08:14 9.74158 38.43401 22450 ft 456 kts 329°
2026-05-01 08:15 9.76875 38.41728 22712 ft 458 kts 329°
2026-05-01 08:15 9.82328 38.38368 23319 ft 459 kts 330°
2026-05-01 08:15 9.85056 38.36686 23662 ft 458 kts 330°
2026-05-01 08:16 9.87780 38.35008 23861 ft 461 kts 329°
2026-05-01 08:16 9.90543 38.33305 24020 ft 464 kts 329°
2026-05-01 08:16 9.93314 38.31596 24206 ft 467 kts 329°
2026-05-01 08:16 9.96082 38.29889 24449 ft 468 kts 329°
2026-05-01 08:17 9.98865 38.28172 24702 ft 469 kts 329°
2026-05-01 08:17 10.01661 38.26447 24980 ft 470 kts 329°
2026-05-01 08:17 10.04459 38.24720 25256 ft 472 kts 329°
2026-05-01 08:17 10.07289 38.22974 25464 ft 475 kts 329°
2026-05-01 08:18 10.10106 38.21235 25720 ft 478 kts 329°
2026-05-01 08:18 10.15837 38.17696 26150 ft 484 kts 329°
2026-05-01 08:19 10.21571 38.14153 26725 ft 487 kts 329°
2026-05-01 08:19 10.24510 38.12337 27015 ft 489 kts 329°
2026-05-01 08:19 10.27411 38.10543 27304 ft 491 kts 329°
2026-05-01 08:19 10.30340 38.08732 27582 ft 494 kts 329°
2026-05-01 08:20 10.33278 38.06915 27887 ft 495 kts 329°
2026-05-01 08:20 10.36241 38.05083 28187 ft 497 kts 329°
2026-05-01 08:20 10.39189 38.03258 28464 ft 499 kts 328°
2026-05-01 08:20 10.42162 38.01419 28704 ft 502 kts 328°
2026-05-01 08:21 10.45149 37.99570 28977 ft 503 kts 328°
2026-05-01 08:21 10.48145 37.97715 29227 ft 505 kts 328°
2026-05-01 08:21 10.51118 37.95874 29475 ft 507 kts 328°
2026-05-01 08:21 10.54136 37.94005 29692 ft 509 kts 328°
2026-05-01 08:22 10.57176 37.92128 29986 ft 509 kts 329°
2026-05-01 08:22 10.60250 37.90342 30309 ft 509 kts 331°
2026-05-01 08:22 10.63352 37.88635 30576 ft 508 kts 332°
2026-05-01 08:22 10.66481 37.86946 30850 ft 508 kts 332°
2026-05-01 08:23 10.69595 37.85264 31146 ft 506 kts 331°
2026-05-01 08:23 10.72698 37.83574 31418 ft 506 kts 331°
2026-05-01 08:23 10.75791 37.81876 31678 ft 505 kts 331°
2026-05-01 08:23 10.78883 37.80169 31944 ft 505 kts 331°
2026-05-01 08:24 10.81962 37.78462 32233 ft 504 kts 330°
2026-05-01 08:24 10.85034 37.76754 32514 ft 503 kts 330°
2026-05-01 08:24 10.88089 37.75055 32784 ft 502 kts 330°
2026-05-01 08:24 10.91163 37.73343 33054 ft 501 kts 330°
2026-05-01 08:25 10.94204 37.71652 33289 ft 500 kts 330°
2026-05-01 08:25 10.97254 37.69955 33553 ft 499 kts 330°
2026-05-01 08:25 11.00316 37.68252 33807 ft 498 kts 330°
2026-05-01 08:25 11.03343 37.66568 34045 ft 497 kts 330°
2026-05-01 08:26 11.06386 37.64875 34240 ft 497 kts 330°
2026-05-01 08:26 11.09419 37.63187 34424 ft 496 kts 330°
2026-05-01 08:26 11.12449 37.61501 34590 ft 496 kts 330°
2026-05-01 08:26 11.15478 37.59815 34758 ft 496 kts 330°
2026-05-01 08:27 11.18498 37.58132 34933 ft 495 kts 330°
2026-05-01 08:27 11.21521 37.56448 35087 ft 495 kts 330°
2026-05-01 08:27 11.24544 37.54764 35246 ft 495 kts 330°
2026-05-01 08:27 11.27529 37.53100 35393 ft 495 kts 330°
2026-05-01 08:28 11.30548 37.51416 35559 ft 494 kts 330°
2026-05-01 08:28 11.33566 37.49734 35710 ft 494 kts 330°
2026-05-01 08:28 11.36581 37.48052 35872 ft 494 kts 330°
2026-05-01 08:29 11.42626 37.44679 35958 ft 498 kts 330°
2026-05-01 08:29 11.48715 37.41280 36029 ft 501 kts 330°
2026-05-01 08:30 11.54823 37.37869 36030 ft 500 kts 330°
2026-05-01 08:30 11.60928 37.34457 36029 ft 500 kts 330°
2026-05-01 08:31 11.67012 37.31056 36019 ft 500 kts 330°
2026-05-01 08:31 11.73108 37.27646 36018 ft 500 kts 330°
2026-05-01 08:32 11.79223 37.24224 36027 ft 500 kts 330°
2026-05-01 08:32 11.85308 37.20817 36019 ft 500 kts 330°
2026-05-01 08:33 11.91379 37.17416 36019 ft 500 kts 330°
2026-05-01 08:33 11.97488 37.13992 36019 ft 500 kts 330°
2026-05-01 08:34 12.03582 37.10574 36015 ft 500 kts 330°
2026-05-01 08:34 12.09688 37.07148 36016 ft 499 kts 330°
2026-05-01 08:35 12.15780 37.03728 35998 ft 499 kts 330°
2026-05-01 08:35 12.21876 37.00304 35998 ft 500 kts 330°
2026-05-01 08:36 12.27957 36.96887 35988 ft 500 kts 330°
2026-05-01 08:36 12.34023 36.93476 35965 ft 499 kts 330°
2026-05-01 08:37 12.40102 36.90057 35951 ft 499 kts 330°
2026-05-01 08:37 12.46202 36.86623 35951 ft 499 kts 330°
2026-05-01 08:38 12.52291 36.83194 35916 ft 499 kts 330°
2026-05-01 08:38 12.58374 36.79766 35913 ft 499 kts 330°
2026-05-01 08:39 12.64454 36.76338 35907 ft 499 kts 330°
2026-05-01 08:39 12.70538 36.72906 35896 ft 499 kts 330°
2026-05-01 08:40 12.79748 36.67984 35890 ft 499 kts 332°
2026-05-01 08:40 12.86002 36.64788 35886 ft 499 kts 332°
2026-05-01 08:41 12.92180 36.61598 35883 ft 499 kts 332°
2026-05-01 08:41 12.98381 36.58375 35888 ft 499 kts 332°
2026-05-01 08:42 13.04573 36.55142 35879 ft 500 kts 332°
2026-05-01 08:42 13.10786 36.51900 35882 ft 500 kts 332°
2026-05-01 08:43 13.16986 36.48665 35877 ft 500 kts 332°
2026-05-01 08:43 13.23191 36.45426 35879 ft 500 kts 332°
2026-05-01 08:44 13.29354 36.42207 35876 ft 500 kts 332°
2026-05-01 08:44 13.35561 36.38963 35876 ft 501 kts 332°
2026-05-01 08:45 13.41774 36.35714 35870 ft 501 kts 332°
2026-05-01 08:45 13.47998 36.32458 35872 ft 501 kts 332°
2026-05-01 08:46 13.54208 36.29207 35864 ft 501 kts 332°
2026-05-01 08:46 13.60392 36.25968 35866 ft 501 kts 332°
2026-05-01 08:47 13.66967 36.23597 35865 ft 504 kts 349°
2026-05-01 08:47 13.73987 36.23309 35864 ft 507 kts
2026-05-01 08:48 13.81042 36.23720 35863 ft 508 kts
2026-05-01 08:48 13.88060 36.24205 35862 ft 508 kts
2026-05-01 08:49 13.95153 36.24670 35863 ft 508 kts
2026-05-01 08:49 14.02175 36.25108 35862 ft 507 kts